CHINASAT 1C (ZX 1C)

Last updated on Jan. 17, 2021, 6:29 a.m. UTC

1 41103U 15073A   21016.90732725 -.00000156  00000-0  00000-0 0  9993
2 41103   2.1266  90.4524 0001676 190.9536 243.3213  1.00268626 18834
UTC
Height (km)
Latitude
Longitude
Inclination
Orbital Period
UTC large
Height (km)
Speed (km/s)
/
Latitude / Longitude
Inclination (degrees)
Orbital Period (minutes)
Azimuth
Elevation
Range (km)
Doppler Factor
iOS Compass Heading
iOS Angle

Next 30 passes for location: Hong Kong

Rise time Rise Azimuth (degrees) Set time Set Azimuth (degrees) Duration Max altitude (degrees)

No matching passes for this satellites